EW8360 Weather Reports


time (UTC)temp
F
wind
direction
speed
knots
gust
knots
rain 1hr
in
rain 24hr
in
rain mn
in
humidity
%
barometer
mb
20260508153543 61 282 0.9 2.6 0.00 0.00 0.00 85 1014.9
20260508153304 61 283 0.9 4.3 0.00 0.00 0.00 85 1015.0
20260508152544 61 246 0.9 4.3 0.00 0.00 0.00 86 1015.0
20260508152044 61 232 3.5 4.3 0.00 0.00 0.00 85 1015.0
20260508151808 61 256 0.0 4.3 0.00 0.00 0.00 86 1014.9
20260508151305 61 237 0.0 4.3 0.00 0.00 0.00 86 1015.0
20260508150544 61 263 1.7 2.6 0.00 0.00 0.00 86 1014.9
20260508150043 61 264 0.9 2.6 0.00 0.00 0.00 87 1015.0
20260508145542 61 291 0.9 2.6 0.00 0.00 0.00 87 1015.0
20260508145307 61 250 0.0 1.7 0.00 0.00 0.00 87 1014.9
20260508144544 61 257 0.9 1.7 0.00 0.00 0.00 87 1014.9
20260508144045 60 265 0.0 0.0 0.00 0.00 0.00 87 1014.9
20260508143541 60 267 0.0 0.9 0.00 0.00 0.00 87 1014.9
20260508143041 60 256 0.0 0.9 0.00 0.00 0.00 87 1014.9
20260508142543 60 258 0.0 0.9 0.00 0.00 0.00 87 1014.9
20260508142043 60 256 0.0 0.9 0.00 0.00 0.00 87 1014.8
20260508141544 60 257 0.0 0.9 0.00 0.00 0.00 88 1014.7
20260508141043 60 267 0.0 0.9 0.00 0.00 0.00 88 1014.7
20260508140541 60 269 0.0 0.9 0.00 0.00 0.00 88 1014.6
20260508140042 60 234 0.9 0.9 0.00 0.00 0.00 88 1014.7
20260508135542 60 248 0.0 0.9 0.00 0.00 0.00 88 1014.7
20260508135041 60 255 0.0 0.9 0.00 0.00 0.00 88 1014.6
20260508134540 60 245 0.0 1.7 0.00 0.00 0.00 88 1014.6
20260508134041 60 224 0.9 1.7 0.00 0.00 0.00 88 1014.6
20260508133543 60 220 0.9 1.7 0.00 0.00 0.00 88 1014.4
20260508133040 60 248 0.0 1.7 0.00 0.00 0.00 89 1014.4
20260508132541 60 225 1.7 1.7 0.00 0.00 0.00 89 1014.4
20260508132040 60 231 0.9 0.9 0.00 0.00 0.00 89 1014.3
20260508131541 60 248 0.0 0.9 0.00 0.00 0.00 89 1014.3
20260508131040 60 251 0.0 2.6 0.00 0.00 0.00 89 1014.2
20260508130540 60 251 0.0 2.6 0.00 0.00 0.00 89 1014.4
20260508130041 60 220 1.7 1.7 0.00 0.00 0.00 89 1014.2
20260508125541 60 244 0.0 0.9 0.00 0.00 0.00 89 1014.2
20260508125039 60 252 0.0 2.6 0.00 0.00 0.00 89 1014.2
20260508124540 60 254 0.0 2.6 0.00 0.00 0.00 89 1014.2
20260508124306 60 244 0.9 1.7 0.00 0.00 0.00 89 1014.1
20260508123539 60 254 0.0 0.9 0.00 0.00 0.00 89 1014.1
20260508123300 60 265 0.0 0.9 0.00 0.00 0.00 90 1014.2
20260508122041 60 262 0.0 0.9 0.00 0.00 0.00 89 1014.1
20260508121541 60 251 0.0 1.7 0.00 0.00 0.00 89 1014.1
20260508121038 60 259 0.0 1.7 0.00 0.00 0.00 89 1014.1
20260508120538 60 234 0.9 1.7 0.00 0.00 0.00 89 1014.1
20260508120039 60 249 0.0 1.7 0.00 0.00 0.00 89 1014.2
20260508115540 60 247 0.0 2.6 0.00 0.00 0.00 89 1014.1
20260508115038 60 250 0.0 2.6 0.00 0.00 0.00 89 1014.1
20260508114537 60 241 0.0 0.0 0.00 0.00 0.00 89 1014.1
20260508114039 60 243 0.0 0.0 0.00 0.00 0.00 89 1014.0
20260508113539 60 252 0.0 1.7 0.00 0.00 0.00 89 1014.1
20260508113037 60 262 0.0 1.7 0.00 0.00 0.00 89 1014.1
20260508112538 60 239 0.9 1.7 0.00 0.00 0.00 89 1014.0
20260508112039 60 256 0.0 1.7 0.00 0.00 0.00 89 1014.0
20260508111539 60 251 0.0 5.2 0.00 0.00 0.00 89 1014.0
20260508111037 60 226 0.9 5.2 0.00 0.00 0.00 89 1014.0
20260508110537 60 240 2.6 4.3 0.00 0.00 0.00 89 1014.0
20260508110036 60 241 0.9 2.6 0.00 0.00 0.00 88 1014.1
20260508105537 60 253 0.9 1.7 0.00 0.00 0.00 88 1014.0
20260508105038 60 243 0.9 1.7 0.00 0.00 0.00 88 1014.1
20260508104537 60 253 0.0 1.7 0.00 0.00 0.00 88 1014.0
20260508104036 60 248 0.0 2.6 0.00 0.00 0.00 88 1014.1
20260508103538 60 231 0.9 4.3 0.00 0.00 0.00 88 1014.1
20260508103257 60 245 0.9 4.3 0.00 0.00 0.00 88 1014.2
20260508102758 60 215 1.7 4.3 0.00 0.00 0.00 88 1014.3
20260508102036 60 258 2.6 4.3 0.00 0.00 0.00 88 1014.3
20260508101535 60 224 1.7 2.6 0.00 0.00 0.00 88 1014.3
20260508101036 60 248 0.0 1.7 0.00 0.00 0.00 88 1014.4
20260508100536 60 238 0.9 1.7 0.00 0.00 0.00 88 1014.4
20260508100034 60 243 0.9 4.3 0.00 0.00 0.00 88 1014.4
20260508095801 60 241 0.9 5.2 0.00 0.00 0.00 88 1014.3
20260508095035 60 223 1.7 5.2 0.00 0.00 0.00 88 1014.3
20260508094534 60 202 1.7 2.6 0.00 0.00 0.00 88 1014.2
20260508094033 60 239 0.9 2.6 0.00 0.00 0.00 89 1014.2
20260508093535 60 226 1.7 1.7 0.00 0.00 0.00 88 1014.1
20260508093035 60 245 0.0 1.7 0.00 0.00 0.00 88 1014.2
20260508092535 60 252 0.0 0.9 0.00 0.00 0.00 88 1014.2
20260508092033 60 244 0.0 0.0 0.00 0.00 0.00 89 1014.2
20260508091534 60 261 0.0 0.0 0.00 0.00 0.00 89 1014.3
20260508091034 60 270 0.0 0.9 0.00 0.00 0.00 89 1014.2
20260508090534 60 295 0.9 1.7 0.00 0.00 0.00 89 1014.2
20260508090033 60 231 0.9 1.7 0.00 0.00 0.00 89 1014.2
20260508085534 60 226 0.9 2.6 0.00 0.00 0.00 89 1014.3
20260508085034 60 223 1.7 4.3 0.00 0.00 0.00 89 1014.3
20260508084533 60 191 1.7 4.3 0.00 0.00 0.00 88 1014.4
20260508084033 60 234 0.9 2.6 0.00 0.00 0.00 88 1014.4
20260508083534 60 267 0.0 1.7 0.00 0.00 0.00 88 1014.4
20260508083033 60 244 0.9 1.7 0.00 0.00 0.00 88 1014.5
20260508082532 60 296 0.9 1.7 0.00 0.00 0.00 89 1014.5
20260508082031 60 251 0.9 2.6 0.00 0.00 0.00 88 1014.5
20260508081753 60 240 0.9 4.3 0.00 0.00 0.00 88 1014.7
20260508081033 61 169 2.6 4.3 0.00 0.00 0.00 89 1014.7
20260508080532 61 189 2.6 2.6 0.00 0.00 0.00 88 1014.7
20260508080032 61 224 1.7 1.7 0.00 0.00 0.00 88 1014.8
20260508075533 61 252 0.0 0.9 0.00 0.00 0.00 88 1014.8
20260508075253 61 246 0.0 0.9 0.00 0.00 0.00 88 1014.9
20260508074531 61 256 0.0 2.6 0.00 0.00 0.00 88 1014.9
20260508074031 61 246 0.0 2.6 0.00 0.00 0.00 88 1014.9
20260508073755 61 332 0.0 1.7 0.00 0.00 0.00 87 1014.8
20260508073032 61 248 0.0 0.9 0.00 0.00 0.00 87 1014.9
20260508072532 61 258 0.0 0.9 0.00 0.00 0.00 87 1014.8
20260508072032 61 243 0.0 0.9 0.00 0.00 0.00 87 1014.8
20260508071530 61 250 0.0 0.9 0.00 0.00 0.00 87 1014.9
20260508071032 60 248 0.0 1.7 0.00 0.00 0.00 87 1015.0
20260508070531 60 254 0.0 1.7 0.00 0.00 0.00 87 1015.0
20260508070030 60 252 0.0 0.9 0.00 0.00 0.00 88 1015.0
20260508065530 60 262 0.0 0.9 0.00 0.00 0.00 88 1015.0
20260508065257 60 239 0.0 1.7 0.00 0.00 0.00 88 1015.1
20260508064530 61 238 0.9 1.7 0.00 0.00 0.00 87 1015.1
20260508064031 61 243 0.9 1.7 0.00 0.00 0.00 87 1015.1
20260508063530 61 235 0.9 2.6 0.00 0.00 0.00 87 1015.2
20260508063030 61 225 0.9 4.3 0.00 0.00 0.00 87 1015.1
20260508062531 61 271 0.0 4.3 0.00 0.00 0.00 87 1015.1
20260508062029 61 158 2.6 4.3 0.00 0.00 0.00 87 1015.1
20260508061529 61 221 0.0 1.7 0.00 0.00 0.00 87 1015.2
20260508061030 61 237 0.0 1.7 0.00 0.00 0.00 87 1015.2
20260508060531 61 242 0.0 2.6 0.00 0.00 0.00 86 1015.2
20260508060029 61 252 0.0 4.3 0.00 0.00 0.00 87 1015.3
20260508055529 61 250 1.7 5.2 0.00 0.00 0.00 87 1015.2
20260508055029 61 224 2.6 5.2 0.00 0.00 0.00 87 1015.2
20260508054530 61 212 2.6 4.3 0.00 0.00 0.00 87 1015.1
20260508054029 61 240 1.7 4.3 0.00 0.00 0.00 87 1015.2
20260508053529 61 213 2.6 4.3 0.00 0.00 0.00 86 1015.1
20260508053253 61 242 0.9 1.7 0.00 0.00 0.00 86 1015.1
20260508052529 61 253 0.0 0.9 0.00 0.00 0.00 86 1015.1
20260508052028 61 255 0.0 0.9 0.00 0.00 0.00 86 1015.1
20260508051528 61 264 0.0 0.9 0.00 0.00 0.00 86 1015.1
20260508051031 61 253 0.9 2.6 0.00 0.00 0.00 86 1015.1
20260508050530 61 243 0.9 4.3 0.00 0.00 0.00 86 1015.1
20260508050028 61 236 1.7 5.2 0.00 0.00 0.00 86 1015.1
20260508045748 61 254 0.0 5.2 0.00 0.00 0.00 86 1015.1
20260508045029 61 248 0.9 4.3 0.00 0.00 0.00 86 1015.1
20260508044757 61 221 3.5 4.3 0.00 0.00 0.00 86 1015.1
20260508044027 61 243 0.9 5.2 0.00 0.00 0.00 86 1015.1
20260508043528 61 245 1.7 7.0 0.00 0.00 0.00 86 1015.0
20260508043028 61 218 3.5 7.0 0.00 0.00 0.00 86 1014.9
20260508042528 61 220 5.2 6.1 0.00 0.00 0.00 86 1014.8
20260508042026 61 263 0.9 2.6 0.00 0.00 0.00 86 1014.7
20260508041751 61 257 0.0 2.6 0.00 0.00 0.00 86 1014.6
20260508041026 61 251 1.7 2.6 0.00 0.00 0.00 86 1014.5
20260508040528 61 244 0.0 1.7 0.00 0.00 0.00 86 1014.5
20260508040249 61 264 0.0 1.7 0.00 0.00 0.00 86 1014.4
20260508035526 61 266 1.7 1.7 0.00 0.00 0.00 86 1014.4
20260508035026 61 265 0.0 1.7 0.00 0.00 0.00 86 1014.4
20260508034748 61 270 0.0 2.6 0.00 0.00 0.00 86 1014.4
20260508034027 60 239 0.0 2.6 0.00 0.00 0.00 87 1014.2
20260508033525 60 227 1.7 1.7 0.00 0.00 0.00 87 1014.3
20260508033026 60 254 0.0 2.6 0.00 0.00 0.00 87 1014.2
20260508032027 60 250 0.9 4.3 0.00 0.00 0.00 87 1014.1
20260508031526 60 260 1.7 4.3 0.00 0.00 0.00 88 1014.0
20260508031247 60 250 0.0 4.3 0.00 0.00 0.00 87 1013.9
20260508030750 61 233 3.5 4.3 0.00 0.00 0.00 87 1013.8
20260508030026 61 276 2.6 4.3 0.00 0.00 0.00 87 1013.8
20260508025525 61 263 0.9 4.3 0.00 0.00 0.00 87 1013.7
20260508025025 61 260 1.7 5.2 0.00 0.00 0.00 87 1013.6
20260508024746 62 286 1.7 5.2 0.00 0.00 0.00 86 1013.5
20260508024026 62 258 0.9 5.2 0.00 0.00 0.00 86 1013.5
20260508023524 62 272 1.7 5.2 0.00 0.00 0.00 85 1013.5
20260508023025 63 330 2.6 5.2 0.00 0.00 0.00 84 1013.4
20260508022748 63 289 2.6 5.2 0.00 0.00 0.00 84 1013.5
20260508022025 63 260 3.5 4.3 0.00 0.00 0.00 82 1013.4
20260508021525 64 305 2.6 4.3 0.00 0.00 0.00 82 1013.4
20260508021025 64 282 1.7 4.3 0.00 0.00 0.00 81 1013.2
20260508020525 64 265 2.6 4.3 0.00 0.00 0.00 80 1013.2
20260508020024 64 309 0.9 4.3 0.00 0.00 0.00 80 1013.1
20260508015524 65 280 1.7 5.2 0.00 0.00 0.00 80 1013.1
20260508015245 65 312 1.7 5.2 0.00 0.00 0.00 79 1013.1
20260508014526 65 265 2.6 5.2 0.00 0.00 0.00 79 1013.2
20260508014025 66 339 3.5 5.2 0.00 0.00 0.00 78 1013.1
20260508013523 66 256 2.6 6.1 0.00 0.00 0.00 76 1013.1
20260508013023 66 331 3.5 6.1 0.00 0.00 0.00 77 1013.1
20260508012524 66 271 1.7 5.2 0.00 0.00 0.00 76 1013.0
20260508012024 66 277 2.6 4.3 0.00 0.00 0.00 76 1013.1
20260508011525 66 280 1.7 6.1 0.00 0.00 0.00 75 1013.0
20260508011023 66 339 4.3 6.1 0.00 0.00 0.00 75 1013.0
20260508010522 66 287 1.7 6.1 0.00 0.00 0.00 75 1013.0
20260508010023 66 297 3.5 7.0 0.00 0.00 0.00 76 1013.0
20260508005523 66 340 2.6 7.0 0.00 0.00 0.00 76 1013.0
20260508005023 67 354 2.6 7.0 0.00 0.00 0.00 76 1013.0
20260508004523 67 332 2.6 5.2 0.00 0.00 0.00 75 1013.1
20260508004023 67 335 3.5 5.2 0.00 0.00 0.00 76 1013.1
20260508003524 67 16 0.9 7.0 0.00 0.00 0.00 74 1013.1
20260508003022 67 275 2.6 7.0 0.00 0.00 0.00 75 1013.1
20260508002522 67 334 3.5 7.0 0.00 0.00 0.00 74 1013.1
20260508002023 67 348 4.3 7.0 0.00 0.00 0.00 75 1013.2
20260508001523 67 292 3.5 7.0 0.00 0.00 0.00 74 1013.1
20260508001021 67 273 1.7 6.1 0.00 0.00 0.00 74 1013.1
20260508000522 67 291 4.3 7.0 0.00 0.00 0.00 74 1013.1
20260508000022 67 280 2.6 7.0 0.00 0.00 0.00 74 1013.2
20260507235522 67 234 3.5 7.8 0.00 0.00 0.00 73 1013.1
20260507235021 67 270 2.6 7.8 0.00 0.00 0.00 73 1013.1
20260507234520 67 352 3.5 5.2 0.00 0.00 0.00 72 1013.2
20260507234243 67 268 0.9 8.7 0.00 0.00 0.00 73 1013.1
20260507233521 67 266 2.6 8.7 0.00 0.00 0.00 74 1013.3
20260507233020 67 2 6.1 7.8 0.00 0.00 0.00 73 1013.0
20260507232522 67 341 3.5 7.8 0.00 0.00 0.00 73 1013.1
20260507232021 67 342 1.7 6.1 0.00 0.00 0.00 72 1013.1
20260507231522 67 262 0.9 8.7 0.00 0.00 0.00 73 1013.1
20260507231020 68 258 5.2 8.7 0.00 0.00 0.00 74 1013.1
20260507230520 68 301 6.1 7.0 0.00 0.00 0.00 72 1013.2
20260507230246 68 303 5.2 7.8 0.00 0.00 0.00 72 1013.2
20260507225246 68 315 4.3 8.7 0.00 0.00 0.00 73 1013.2
20260507224743 68 268 4.3 8.7 0.00 0.00 0.00 73 1013.2
20260507224243 68 274 2.6 7.8 0.00 0.00 0.00 71 1013.2
20260507223521 68 268 2.6 7.8 0.00 0.00 0.00 72 1013.2
20260507223019 67 347 1.7 10.4 0.00 0.00 0.00 72 1013.3
20260507222519 67 263 3.5 10.4 0.00 0.00 0.00 73 1013.3
20260507222243 67 281 4.3 7.8 0.00 0.00 0.00 73 1013.4
20260507221520 67 313 4.3 7.8 0.00 0.00 0.00 72 1013.4
20260507221019 67 256 4.3 11.3 0.00 0.00 0.00 72 1013.4
20260507220518 67 275 3.5 11.3 0.00 0.00 0.00 74 1013.5
20260507220020 68 251 3.5 8.7 0.00 0.00 0.00 72 1013.5
20260507215750 68 268 2.6 8.7 0.00 0.00 0.00 73 1013.6
20260507215246 67 250 1.7 10.4 0.00 0.00 0.00 73 1013.7
20260507214518 67 345 1.7 10.4 0.00 0.00 0.00 72 1013.6
20260507214019 67 247 5.2 7.8 0.00 0.00 0.00 73 1013.8
20260507213735 67 346 6.1 7.8 0.00 0.00 0.00 73 1013.8
20260507213019 67 339 4.3 11.3 0.00 0.00 0.00 74 1013.9
20260507212519 67 319 5.2 11.3 0.00 0.00 0.00 74 1013.9
20260507212017 67 353 0.9 11.3 0.00 0.00 0.00 74 1013.9
20260507211737 67 295 3.5 10.4 0.00 0.00 0.00 72 1014.0
20260507211019 67 241 6.1 10.4 0.00 0.00 0.00 73 1014.0
20260507210518 67 347 7.8 10.4 0.00 0.00 0.00 73 1014.1
20260507210241 67 323 5.2 12.2 0.00 0.00 0.00 73 1014.0
20260507205518 67 273 1.7 12.2 0.00 0.00 0.00 74 1014.1
20260507205031 67 2 4.3 11.3 0.00 0.00 0.00 75 1014.1
20260507204518 67 298 7.0 11.3 0.00 0.00 0.00 73 1014.2
20260507204017 67 335 1.7 11.3 0.00 0.00 0.00 74 1014.1
20260507203518 67 320 6.1 11.3 0.00 0.00 0.00 75 1014.2
20260507203243 67 12 3.5 11.3 0.00 0.00 0.00 74 1014.2
20260507202742 67 255 3.5 11.3 0.00 0.00 0.00 71 1014.2
20260507202017 67 4 4.3 12.2 0.00 0.00 0.00 74 1014.2
20260507201517 67 238 1.7 12.2 0.00 0.00 0.00 74 1014.3
20260507201244 67 341 6.1 11.3 0.00 0.00 0.00 73 1014.2
20260507200516 68 1 7.0 10.4 0.00 0.00 0.00 73 1014.2
20260507200017 68 1 5.2 8.7 0.00 0.00 0.00 72 1014.3
20260507195734 68 348 3.5 7.8 0.00 0.00 0.00 73 1014.3
20260507195017 68 274 5.2 7.8 0.00 0.00 0.00 71 1014.4
20260507194516 68 313 4.3 10.4 0.00 0.00 0.00 72 1014.3
20260507194016 68 344 3.5 11.3 0.00 0.00 0.00 72 1014.3
20260507193742 68 331 6.1 11.3 0.00 0.00 0.00 74 1014.3
20260507193018 67 310 3.5 7.8 0.00 0.00 0.00 71 1014.3
20260507192515 67 250 2.6 8.7 0.00 0.00 0.00 73 1014.3
20260507192015 67 319 3.5 8.7 0.00 0.00 0.00 73 1014.3
20260507191517 67 263 4.3 8.7 0.00 0.00 0.00 74 1014.4
20260507191017 67 276 1.7 8.7 0.00 0.00 0.00 72 1014.5
20260507190016 67 297 3.5 7.8 0.00 0.00 0.00 73 1014.7
20260507185516 67 254 1.7 7.8 0.00 0.00 0.00 72 1014.6
20260507185016 67 331 2.6 7.8 0.00 0.00 0.00 74 1014.8
20260507184516 67 268 2.6 7.8 0.00 0.00 0.00 73 1014.8
20260507184015 67 267 3.5 7.8 0.00 0.00 0.00 73 1014.8
20260507183731 67 346 4.3 7.8 0.00 0.00 0.00 73 1014.8
20260507183248 67 267 5.2 10.4 0.00 0.00 0.00 72 1014.8
20260507182517 67 304 7.0 10.4 0.00 0.00 0.00 74 1014.8
20260507182015 67 250 1.7 8.7 0.00 0.00 0.00 74 1014.9
20260507181514 67 314 5.2 8.7 0.00 0.00 0.00 74 1014.9
20260507181015 67 344 3.5 8.7 0.00 0.00 0.00 74 1014.9
20260507180515 67 336 4.3 8.7 0.00 0.00 0.00 73 1014.9
20260507180016 67 246 2.6 6.1 0.00 0.00 0.00 73 1014.9
20260507175514 66 312 2.6 7.0 0.00 0.00 0.00 72 1014.9
20260507175015 66 350 0.9 7.0 0.00 0.00 0.00 73 1015.0
20260507174515 66 331 2.6 7.0 0.00 0.00 0.00 75 1015.1
20260507174014 65 296 2.6 6.1 0.00 0.00 0.00 75 1015.0
20260507173514 65 295 1.7 6.1 0.00 0.00 0.00 79 1015.1
20260507173015 65 267 1.7 8.7 0.00 0.00 0.00 75 1015.0
20260507172514 65 283 1.7 8.7 0.00 0.00 0.00 78 1015.1
20260507172013 65 261 1.7 5.2 0.00 0.00 0.00 77 1015.0
20260507171514 65 277 3.5 5.2 0.00 0.00 0.00 76 1015.1
20260507171013 64 255 2.6 5.2 0.00 0.00 0.00 76 1015.1
20260507170514 64 246 2.6 2.6 0.00 0.00 0.00 76 1015.2
20260507170013 64 261 2.6 7.0 0.00 0.00 0.00 77 1015.1
20260507165513 63 325 0.9 7.0 0.00 0.00 0.00 81 1015.2
20260507165012 63 317 4.3 5.2 0.00 0.00 0.00 80 1015.2
20260507164514 63 300 2.6 4.3 0.00 0.00 0.00 82 1015.2
20260507164012 63 255 0.0 5.2 0.00 0.00 0.00 80 1015.2
20260507163512 63 254 0.0 5.2 0.00 0.00 0.00 81 1015.3
20260507163011 63 320 1.7 4.3 0.00 0.00 0.00 81 1015.3
20260507162513 62 323 2.6 4.3 0.00 0.00 0.00 81 1015.3
20260507162011 62 250 0.9 2.6 0.00 0.00 0.00 81 1015.4
20260507161512 62 285 0.9 1.7 0.00 0.00 0.00 82 1015.4
20260507161011 62 269 0.0 1.7 0.00 0.00 0.00 82 1015.4
20260507160513 61 267 0.0 4.3 0.00 0.00 0.00 83 1015.3
20260507160012 61 350 2.6 4.3 0.00 0.00 0.00 84 1015.4
20260507155512 61 258 0.0 5.2 0.00 0.00 0.00 85 1015.4
20260507155011 61 312 2.6 5.2 0.00 0.00 0.00 85 1015.4
20260507154513 61 301 2.6 4.3 0.00 0.00 0.00 85 1015.4
20260507154013 60 260 0.9 4.3 0.00 0.00 0.00 84 1015.4